Location: Joplin, MO
(37.0842°N, 94.5133°W)
Time: 21:26:12
(UTC+02:00)

Courier 1B Rocket - Pass Details

Date: 04 April 2023
Orbit: 920 x 1202 km, 28.2° (Epoch: 08 June)

Event Time Altitude Azimuth Distance (km) Brightness Sun altitude
Rises 03:13:08 0° 261° (W) 4,046 9.7 -6.9°
Reaches altitude 10° 03:16:11 10° 254° (WSW) 3,053 8.7 -7.5°
Maximum altitude 03:23:06 40° 188° (S) 1,573 6.1 -8.8°
Enters shadow 03:29:26 11° 121° (ESE) 2,813 6.8 -10.1°
Drops below altitude 10° 03:29:36 10° 121° (ESE) 2,867 - -10.1°
Sets 03:32:24 0° 114° (ESE) 3,776 - -10.6°
